Weather History for KCOU - September, 2014

Change the Weather History Date:

Wednesday, September 3, 2014

  Actual Average Record
Temperature  
Mean Temperature 73 °F 73 °F  
Max Temperature 82 °F 84 °F 103 °F (1939)
Min Temperature 64 °F 62 °F 43 °F (1974)
Degree Days  
Heating Degree Days 0 0  
Month to date heating degree days 0 0  
Since 1 July heating degree days 0 2  
Cooling Degree Days 8 8  
Month to date cooling degree days 27 25  
Year to date cooling degree days 1137 1108  
Growing Degree Days 23 (Base 50)    
Moisture  
Dew Point 67 °F    
Average Humidity 81    
Maximum Humidity 100    
Minimum Humidity 62    
Precipitation  
Precipitation T in 0.14 in 2.50 in (1962)
Month to date precipitation 4.55 0.41  
Year to date precipitation 28.84 30.16  
Snow  
Snow 0.00 in 0.00 in 0.00 in (2013)
Month to date snowfall 0.0 0.0  
Since 1 July snowfall 0.0 0.0  
Since 1 September snowfall 0.0 0.0  
Snow Depth 0.00 in    
Sea Level Pressure  
Sea Level Pressure 29.98 in    
Wind  
Wind Speed 9 mph (SSE)    
Max Wind Speed 22 mph    
Max Gust Speed 29 mph    
Visibility 7 miles    
Events Fog , Rain    
T = Trace of Precipitation, MM = Missing Value Source: NWS Daily Summary

Daily Weather History Graph

Daily Weather History Graph

Search for Another Location

Airport or City:

Trip Planner

Search our weather history database for the weather conditions in past years. The results will help you decide how hot, cold, wet, or windy it might be!

Date:

Astronomy

Sep. 03, 2014 Rise Set
Actual Time 6:39 AM CDT 7:36 PM CDT
Civil Twilight 6:12 AM CDT 8:03 PM CDT
Nautical Twilight 5:40 AM CDT 8:35 PM CDT
Astronomical Twilight 5:06 AM CDT 9:08 PM CDT
Moon 3:16 PM CDT 12:35 AM CDT
Length of Visible Light 13h 50m
Length of Day
12h 56m
Waxing Gibbous, 64% of the Moon is Illuminated
Sep 3
Waxing Gibbous
Sep 8
Full
Sep 15
Last Quarter
Sep 24
New
Oct 1
First Quarter

Hourly Weather History & Observations

Time (CDT) Temp. Heat Index Dew Point Humidity Pressure Visibility Wind Dir Wind Speed Gust Speed Precip Events Conditions
12:46 AM 66.9 °F - 66.9 °F 100% 30.02 in 1.5 mi South 6.9 mph - N/A   Clear
12:50 AM 64.4 °F - 64.4 °F 100% 30.03 in 0.5 mi South 8.1 mph - N/A Fog Fog
12:54 AM 64.9 °F - 64.9 °F 100% 30.01 in 0.5 mi South 8.1 mph - N/A Fog Fog
1:03 AM 66.0 °F - 66.0 °F 100% 30.02 in 1.5 mi South 5.8 mph - N/A   Partly Cloudy
1:06 AM 66.9 °F - 66.0 °F 97% 30.02 in 3.0 mi South 5.8 mph - N/A   Partly Cloudy
1:54 AM 66.0 °F - 66.0 °F 100% 30.00 in 3.0 mi South 5.8 mph - N/A   Clear
1:58 AM 66.0 °F - 66.0 °F 100% 30.02 in 2.0 mi South 5.8 mph - N/A   Partly Cloudy
2:01 AM 66.0 °F - 66.0 °F 100% 30.02 in 1.0 mi South 5.8 mph - N/A   Mist
2:09 AM 66.0 °F - 66.0 °F 100% 30.01 in 0.5 mi South 6.9 mph - N/A Fog Fog
2:14 AM 66.9 °F - 66.0 °F 97% 30.02 in 1.2 mi South 5.8 mph - N/A   Scattered Clouds
2:23 AM 66.9 °F - 66.0 °F 97% 30.01 in 2.5 mi South 5.8 mph - N/A   Scattered Clouds
2:31 AM 66.9 °F - 66.9 °F 100% 30.01 in 5.0 mi South 6.9 mph - N/A   Partly Cloudy
2:54 AM 66.0 °F - 66.0 °F 100% 29.99 in 6.0 mi SSE 6.9 mph - N/A   Clear
3:54 AM 66.0 °F - 64.9 °F 96% 29.97 in 8.0 mi SE 5.8 mph - N/A   Clear
4:54 AM 66.0 °F - 64.9 °F 96% 29.99 in 9.0 mi SE 4.6 mph - N/A   Clear
5:54 AM 64.9 °F - 64.9 °F 100% 29.99 in 6.0 mi SE 6.9 mph - N/A   Clear
6:44 AM 64.0 °F - 64.0 °F 100% 30.02 in 2.0 mi South 3.5 mph - N/A   Partly Cloudy
6:54 AM 64.9 °F - 63.0 °F 93% 29.99 in 2.5 mi North - - N/A   Partly Cloudy
7:01 AM 64.9 °F - 64.9 °F 100% 30.01 in 6.0 mi SE 6.9 mph - N/A   Clear
7:54 AM 66.9 °F - 66.0 °F 97% 29.97 in 10.0 mi ESE 8.1 mph - N/A   Clear
8:54 AM 68.0 °F - 66.9 °F 96% 30.02 in 10.0 mi SSW 6.9 mph - N/A   Partly Cloudy
9:54 AM 69.1 °F - 66.9 °F 93% 30.03 in 10.0 mi West 4.6 mph - N/A   Clear
10:54 AM 71.1 °F - 68.0 °F 90% 30.03 in 10.0 mi SW 10.4 mph - N/A   Partly Cloudy
11:54 AM 70.0 °F - 66.9 °F 90% 29.96 in 10.0 mi South 17.3 mph - 0.00 in Rain Light Rain
12:54 PM 73.0 °F - 66.0 °F 79% 29.98 in 10.0 mi SSW 11.5 mph - 0.00 in   Scattered Clouds
1:54 PM 75.0 °F - 66.9 °F 76% 29.91 in 10.0 mi East 8.1 mph - N/A   Clear
2:54 PM 79.0 °F - 66.9 °F 66% 29.95 in 10.0 mi SSW 6.9 mph - N/A   Clear
3:54 PM 80.1 °F 82.1 °F 66.0 °F 62% 29.93 in 10.0 mi South 12.7 mph - N/A   Clear
4:54 PM 81.0 °F 83.0 °F 66.0 °F 60% 29.92 in 10.0 mi SSE 10.4 mph - N/A   Clear
5:54 PM 80.1 °F 82.3 °F 66.9 °F 64% 29.91 in 10.0 mi SSE 11.5 mph - N/A   Clear
6:54 PM 78.1 °F - 69.1 °F 74% 29.91 in 10.0 mi SSE 10.4 mph - N/A   Clear
7:54 PM 75.0 °F - 70.0 °F 84% 29.90 in 10.0 mi SE 8.1 mph - N/A   Clear
8:54 PM 73.9 °F - 70.0 °F 87% 29.91 in 10.0 mi SE 6.9 mph - N/A   Clear
9:54 PM 73.9 °F - 70.0 °F 87% 29.92 in 10.0 mi SE 8.1 mph - N/A   Clear
10:54 PM 73.9 °F - 70.0 °F 87% 29.92 in 10.0 mi SSE 8.1 mph - N/A   Clear
11:54 PM 73.4 °F - 69.8 °F 88% 29.95 in 10.0 mi SSE 9.2 mph - N/A   Clear